Theta_e
313 315 317 317 313 312 309 308 307 313 319 320 321 323 324 325 326 327 329 328 328 327 328 330 330 328 327 326 324 322 320 323 325 324 325 321 324 326 328 328 328 329 327 328 328
311 313 314 316 317 313 311 308 308 308 312 318 319 320 322 323 324 325 326 328 328 328 327 328 330 329 327 325 324 320 321 322 321 321 321 320 322 322 325 326 328 329 328 328 328
311 312 313 314 315 317 313 310 308 308 308 313 317 319 320 321 322 323 322 323 327 328 328 326 329 327 325 325 323 319 321 319 321 320 320 321 321 321 323 322 325 326 325 325 327
313 311 312 313 313 315 317 313 310 308 308 308 313 318 319 320 321 321 321 320 324 325 327 327 328 326 323 323 323 322 321 320 322 321 321 321 321 321 321 323 324 324 323 323 326
311 313 310 310 312 313 317 315 311 310 309 309 309 315 318 320 319 323 325 322 322 323 325 327 327 327 322 321 322 322 322 322 322 323 322 322 321 321 322 323 322 322 321 322 324
308 311 312 311 310 313 314 317 316 311 310 311 310 311 317 319 318 319 324 324 323 322 325 327 327 326 325 323 322 322 322 322 323 323 323 321 320 320 322 323 323 322 323 322 322
309 308 312 312 309 311 313 316 316 314 311 310 312 310 317 317 317 316 320 322 326 325 324 327 327 326 325 324 324 323 323 320 321 323 321 322 320 317 323 321 321 322 323 323 322
310 309 311 312 311 309 312 313 315 316 312 310 313 311 314 313 317 318 317 319 321 326 326 325 328 325 324 323 322 323 321 325 322 321 322 321 324 321 323 322 323 323 323 323 323
310 309 307 310 311 310 310 312 313 315 314 311 313 313 311 310 314 318 319 318 320 321 322 325 327 325 323 323 324 322 325 322 321 319 319 319 321 320 322 322 321 322 322 323 323
308 309 308 307 310 310 311 312 311 314 314 312 313 313 312 311 311 317 319 321 321 322 323 324 325 324 323 325 325 323 324 322 322 320 319 320 319 316 321 321 320 321 321 321 322
303 308 309 308 307 309 309 311 312 313 314 312 312 313 310 311 311 315 319 320 321 322 321 321 322 323 324 324 323 322 322 322 319 319 319 319 318 317 319 319 319 320 321 320 321
303 307 309 309 307 308 308 311 311 313 315 312 311 312 310 312 316 314 317 319 320 319 320 321 321 317 320 322 323 324 323 324 320 318 320 319 321 319 317 318 319 319 319 319 319
303 305 310 308 308 308 308 309 311 312 313 312 311 312 311 311 315 315 317 318 317 318 319 321 318 317 318 319 321 321 322 320 323 320 319 319 320 318 317 317 317 317 317 317 318
301 305 308 307 307 308 308 309 311 312 312 312 312 312 312 312 313 315 315 317 318 318 317 319 317 317 317 318 318 320 317 318 319 320 321 317 320 316 314 313 312 316 317 317 317
301 304 308 306 307 307 307 308 310 310 312 310 312 311 311 311 311 314 314 316 315 316 316 318 317 318 319 318 318 319 316 317 317 318 320 319 321 315 312 314 314 314 315 315 315
301 301 307 307 307 307 308 308 310 310 312 311 311 312 311 311 312 313 315 315 315 314 314 314 314 315 316 315 316 315 318 318 318 321 323 319 320 319 316 313 313 313 314 314 314
301 302 307 307 307 307 308 309 311 311 308 311 311 311 311 312 313 313 314 314 312 315 315 314 315 314 316 316 315 317 319 321 322 322 320 314 318 318 313 312 310 310 314 312 311
302 308 306 306 306 307 308 309 311 309 309 309 309 311 312 311 313 312 314 313 311 310 310 313 311 315 313 315 316 317 317 319 320 317 317 312 318 317 312 312 314 314 313 312 309
307 306 305 305 305 307 307 309 309 305 309 310 309 311 311 311 311 313 312 312 311 310 309 311 311 312 313 314 315 318 319 316 316 307 312 313 312 312 313 312 311 311 312 309 307
301 301 302 303 304 304 305 307 303 305 307 309 310 310 311 312 312 312 313 310 310 311 309 310 308 312 312 314 315 317 315 320 318 320 316 315 312 315 310 310 310 307 307 306 305
300 300 301 302 302 302 305 304 302 304 306 309 308 310 309 311 311 312 312 309 310 309 309 309 308 312 315 316 316 318 318 316 315 317 316 315 313 309 307 306 307 307 304 302 302
300 300 302 302 302 300 303 301 303 303 306 307 308 307 308 309 311 311 311 309 309 309 312 310 308 308 312 313 312 314 317 316 316 318 316 317 317 310 309 306 306 302 301 300 300
299 299 302 302 303 301 300 302 302 304 306 307 308 307 307 309 311 310 309 308 309 310 311 311 312 307 313 314 313 315 315 315 313 310 315 316 316 311 310 306 304 302 302 304 305
299 299 300 301 300 297 300 301 302 303 305 305 306 307 307 308 309 310 310 308 309 310 311 311 308 310 309 307 309 313 313 315 315 316 315 317 315 313 310 309 306 306 307 307 308
300 295 300 300 300 299 299 301 302 304 304 305 306 306 308 309 309 306 308 309 310 310 311 310 311 308 309 311 310 310 311 313 315 314 316 314 315 313 311 310 310 309 309 308 307
298 298 299 296 299 300 300 301 302 301 303 303 305 306 305 308 309 309 308 308 310 310 311 310 312 308 306 309 310 311 309 311 312 313 313 312 312 310 310 309 309 306 301 297 295
299 299 300 298 300 299 300 300 301 301 302 303 304 305 308 306 307 308 308 309 308 310 312 312 311 310 311 308 310 312 311 310 311 310 311 312 311 307 307 309 306 300 297 294 293
Wind_Speed
35 31 27 27 24 22 22 24 26 28 24 21 19 19 18 18 20 20 17 15 11 10 11 9 8 8 6 3 4 2 4 2 3 4 1 2 2 1 1 3 5 4 5 5 7
43 36 31 27 26 24 22 21 22 25 26 23 19 17 17 16 17 23 23 17 13 10 8 8 8 7 3 4 2 3 3 7 2 2 1 0 1 0 1 0 3 5 6 8 6
34 41 40 32 28 27 24 21 20 21 24 24 21 17 14 13 13 22 24 21 16 12 9 8 4 3 1 2 2 1 4 3 2 0 1 2 2 0 3 2 6 3 2 6 7
32 34 43 38 33 28 26 23 20 19 21 23 22 18 13 12 6 3 10 17 21 17 14 9 4 1 1 1 1 1 4 3 1 1 1 2 3 5 5 4 3 4 8 10 11
38 33 34 41 35 32 27 25 22 19 19 20 22 20 18 16 18 2 2 9 22 23 18 13 9 4 3 2 1 2 2 3 5 6 6 7 8 8 13 10 11 14 12 12 13
39 36 33 34 38 33 29 27 23 21 18 19 20 23 23 17 17 23 3 6 8 22 20 16 7 8 2 2 3 2 2 5 3 7 9 5 4 6 2 5 11 13 15 15 16
39 39 34 31 35 34 31 27 26 21 19 19 20 25 22 23 9 19 26 12 1 12 19 17 14 8 5 1 6 4 4 6 4 5 5 4 7 7 20 14 15 17 14 18 18
36 38 35 32 30 34 31 29 24 23 21 18 19 23 13 21 16 9 22 23 13 5 12 15 14 7 4 2 2 1 2 3 3 4 4 4 9 4 9 7 11 15 18 19 21
35 37 40 36 32 30 32 30 26 21 21 19 19 14 8 15 29 18 11 19 19 14 9 7 14 5 6 4 5 3 6 4 6 2 3 6 3 6 10 14 21 24 26 27 29
34 38 38 39 35 32 30 29 24 21 22 19 15 9 15 13 23 26 15 13 16 16 11 8 6 4 4 7 15 11 6 3 6 2 2 6 10 9 26 25 26 31 32 34 36
34 37 38 37 39 32 30 27 18 13 33 11 13 6 1 17 18 30 22 18 16 17 8 10 6 12 13 10 7 3 2 3 1 2 4 6 10 11 26 25 25 31 37 44 47
41 35 39 38 41 38 35 35 34 11 10 20 7 26 8 16 15 23 32 16 11 5 9 5 19 8 4 7 7 5 7 6 3 3 2 7 21 13 10 18 26 30 36 40 41
41 45 41 41 41 38 43 42 35 17 6 14 13 28 18 18 10 25 31 25 5 8 11 12 4 16 10 7 8 6 11 4 4 0 4 5 23 13 19 24 27 24 29 36 40
47 45 41 40 40 43 42 41 33 24 4 9 12 12 17 13 4 14 31 21 7 16 7 10 15 7 4 11 7 13 7 5 4 2 8 5 17 13 5 12 8 27 31 34 41
41 43 41 46 37 47 46 42 32 24 11 12 11 11 23 18 16 15 30 24 8 6 7 7 10 13 12 9 10 6 7 9 6 4 4 14 6 5 6 11 19 18 22 32 25
43 46 47 47 36 46 40 42 33 9 14 7 13 12 14 23 7 14 15 16 6 5 2 4 2 8 7 5 12 6 5 2 3 6 9 14 10 24 10 12 10 5 12 18 14
37 43 59 52 40 45 40 40 11 14 9 9 13 15 25 10 13 9 13 13 8 9 14 4 5 3 3 6 2 4 5 3 4 5 9 4 11 23 4 7 7 11 16 1 10
37 57 55 50 44 45 41 15 17 10 10 5 12 20 20 15 13 8 15 17 13 3 5 13 4 10 5 7 6 10 13 6 5 4 5 4 9 11 6 5 11 17 13 11 13
38 46 47 41 46 45 29 15 15 5 8 12 14 15 11 14 10 12 16 22 16 15 10 9 7 2 1 5 10 5 12 15 7 1 1 5 8 11 3 10 8 2 14 16 18
33 28 29 37 42 39 12 10 4 2 5 8 10 12 14 21 14 19 16 15 11 19 2 5 1 1 3 4 4 4 3 4 5 5 4 4 5 7 11 12 3 9 19 21 22
22 10 26 32 34 24 8 7 2 7 4 9 7 9 18 13 18 17 16 6 23 16 12 5 4 1 5 9 11 6 8 3 1 3 5 11 6 5 10 12 5 15 23 23 23
13 3 24 37 5 3 4 6 9 4 9 1 1 3 14 17 17 17 19 19 26 21 20 6 4 4 10 3 2 7 12 12 8 5 4 1 2 1 2 11 23 21 25 23 22
13 7 26 31 5 2 3 4 1 5 5 4 4 4 4 15 10 15 12 10 21 17 19 12 6 3 2 2 2 6 10 11 3 0 10 3 5 4 6 16 20 27 23 20 16
10 4 6 14 5 4 5 5 8 10 2 6 5 3 2 6 5 16 17 4 24 22 19 24 4 14 14 5 6 8 11 11 9 4 7 9 5 5 6 11 15 17 16 13 9
5 3 7 9 13 9 7 8 7 8 8 16 8 12 4 6 14 5 10 5 10 23 16 12 10 5 1 2 4 6 10 17 16 25 11 11 13 14 15 12 15 16 12 9 5
7 5 5 2 9 13 8 7 17 7 10 7 11 17 19 7 12 12 14 7 9 5 15 6 3 7 5 6 5 4 6 18 23 19 20 10 13 5 21 21 14 13 14 13 9
5 9 10 9 10 12 17 14 14 13 15 15 19 11 12 23 19 15 24 19 12 13 15 10 5 4 10 4 4 6 25 13 14 7 18 15 14 8 8 12 14 16 17 16 10
Wind_Direction
242 242 240 237 234 233 234 235 232 233 235 236 236 237 236 246 255 248 247 250 256 272 280 283 305 327 330 6 19 44 65 154 239 165 239 7 136 100 102 153 195 214 270 291 306
240 241 240 239 236 233 231 231 231 231 230 232 235 237 237 243 252 255 242 240 247 259 277 290 290 310 336 350 19 81 109 213 231 157 241 24 129 55 155 130 228 240 266 290 278
237 236 238 239 238 234 230 227 225 226 227 227 230 233 237 242 263 268 256 243 236 246 254 261 291 346 9 337 354 133 178 212 249 223 316 331 311 317 154 269 246 261 301 300 280
239 233 234 238 234 234 230 226 225 222 220 220 221 225 227 227 225 247 245 231 224 228 233 242 248 42 55 249 252 295 233 199 322 330 315 298 303 299 234 243 251 241 300 290 277
241 237 231 233 234 230 228 224 221 220 216 212 211 213 212 210 216 257 17 222 211 213 219 222 216 188 189 213 262 214 250 245 278 279 275 275 252 259 265 270 272 279 285 279 274
240 238 230 230 228 227 223 222 219 216 213 208 205 204 211 222 239 226 222 49 220 216 209 209 213 213 234 222 180 279 268 278 288 275 266 261 269 215 271 249 257 280 289 290 283
238 231 229 226 224 224 220 219 215 213 210 205 203 205 215 220 221 222 229 246 38 210 212 209 201 193 199 259 234 273 318 327 250 253 254 284 293 226 274 273 271 276 283 296 295
235 229 226 223 222 219 219 215 214 209 206 203 206 207 221 227 217 209 222 227 223 160 197 216 206 211 190 163 36 188 67 277 266 220 239 159 261 278 296 280 277 280 286 290 292
229 227 225 226 221 215 214 213 210 206 202 198 202 197 228 215 208 202 214 215 215 216 205 197 207 198 171 141 232 197 246 235 305 18 298 191 258 258 248 280 292 293 295 296 295
228 225 226 223 221 210 209 206 201 197 191 192 202 187 235 201 204 193 198 196 189 197 188 190 180 171 180 187 224 231 228 232 221 274 239 267 263 272 278 285 292 294 297 297 294
239 220 222 223 212 208 199 189 179 194 183 180 184 188 332 192 193 196 192 182 188 189 182 186 210 216 200 216 238 133 141 229 302 308 300 250 268 262 272 283 287 292 295 296 290
234 227 218 215 209 208 199 191 192 193 177 192 182 193 153 172 174 197 197 180 186 182 162 170 231 210 202 183 211 218 246 252 219 206 250 294 281 270 254 267 274 279 286 288 291
235 225 208 210 204 199 201 203 195 167 181 195 188 197 170 175 176 197 194 199 170 181 191 209 187 173 186 190 196 211 228 187 242 225 258 317 282 277 270 267 273 278 283 284 284
232 219 210 204 205 198 202 199 195 184 198 182 188 206 179 177 221 200 198 186 197 207 191 231 238 181 189 217 164 234 163 179 230 158 263 159 281 274 263 269 249 271 272 280 291
229 220 207 204 195 195 198 197 188 185 219 181 162 191 187 179 147 193 195 193 172 173 155 203 173 197 204 205 175 233 157 183 182 211 295 245 272 331 34 279 277 268 272 287 298
223 220 204 194 189 194 191 188 180 198 207 162 144 161 160 190 178 148 175 196 180 151 277 224 227 185 206 139 177 144 108 141 161 227 239 240 209 275 253 247 259 264 264 313 320
230 224 188 185 177 181 181 179 194 218 152 169 172 166 184 168 168 159 176 182 169 184 219 158 199 217 178 109 68 152 139 225 205 202 246 152 187 244 260 265 260 252 284 3 77
204 180 181 177 177 171 172 190 212 159 166 178 167 177 186 169 189 163 164 196 213 174 166 210 222 174 182 197 168 191 208 223 227 212 233 142 224 251 252 323 260 267 183 124 101
169 167 168 172 176 175 174 210 211 144 153 161 151 174 181 179 165 168 187 201 198 193 178 188 228 68 151 152 162 179 214 222 278 94 283 222 280 294 305 269 261 9 184 118 95
165 144 163 164 171 172 195 199 128 120 150 157 162 176 177 183 178 186 183 203 205 195 215 204 96 226 171 101 271 186 197 178 203 227 253 237 269 251 338 316 325 110 89 89 95
141 117 154 168 169 170 204 210 94 218 202 161 175 172 193 181 192 187 185 202 193 189 169 146 104 126 141 204 184 188 221 191 344 249 267 265 245 329 299 297 101 95 98 103 96
126 73 161 164 157 144 154 140 160 196 208 275 150 161 188 180 190 193 197 200 197 163 193 170 136 161 205 152 224 207 218 209 231 210 216 224 250 332 326 86 98 87 95 94 86
116 88 161 175 182 128 81 154 58 163 170 128 255 234 224 185 194 200 202 180 178 173 176 176 195 128 205 276 215 215 207 195 175 173 248 273 256 164 86 105 115 120 116 99 81
133 126 141 185 191 110 135 203 186 243 215 163 188 295 215 178 187 198 209 188 177 184 184 167 174 206 213 189 145 199 205 200 189 233 242 232 210 173 157 133 139 134 119 98 76
138 175 159 178 200 194 158 161 160 174 213 204 210 217 250 186 190 180 189 133 179 183 179 178 216 202 219 159 175 188 189 199 208 228 222 237 217 199 179 164 162 155 133 117 113
118 117 117 90 157 190 211 205 184 190 172 218 224 207 213 263 204 197 178 184 171 176 189 205 224 154 239 215 187 234 221 206 213 223 232 246 256 166 172 178 171 145 133 125 121
156 137 167 155 177 186 213 214 210 195 207 212 201 191 194 213 246 271 190 188 162 172 191 201 177 145 236 167 115 263 237 201 217 207 216 229 237 154 158 165 157 146 149 149 157